Vorticity
3 6 13 0 4 6 17 8 4 5 3 5 3 7 5 21 -2 10 60 16 6 8 -3 -1 13 15 27 22 53 47 26 28 5 8 6 6 4 5 6 2 -0 4 3 4
5 0 6 0 7 16 15 8 5 1 4 6 5 8 7 61 -15 34 2 -4 8 11 -4 10 29 36 18 -12 5 5 65 20 18 -3 8 5 3 7 8 1 -3 3 2 5
4 2 6 2 11 13 12 4 1 4 4 1 21 15 30 -4 10 26 -7 -5 10 0 8 14 5 13 7 10 5 15 9 74 30 14 5 6 7 8 4 8 -0 5 2 3
8 5 8 10 16 10 10 2 3 6 4 4 24 14 28 19 -9 18 -5 -3 8 5 12 17 3 2 6 7 15 8 9 17 37 35 7 4 6 1 3 18 -3 2 6 -2
15 11 4 13 11 12 5 3 3 6 0 7 54 -0 8 -2 8 8 -5 5 4 11 23 22 9 19 39 10 12 12 -42 75 29 40 27 7 2 5 4 17 -7 7 11 -4
4 14 12 10 13 7 4 4 6 3 17 18 14 5 7 -6 -13 -4 2 6 9 12 5 33 24 32 16 -5 10 24 27 10 44 4 70 15 2 5 -0 4 -0 4 8 5
7 11 14 12 11 7 4 2 6 1 10 34 13 6 -11 8 20 3 7 5 15 11 16 40 10 13 27 22 28 22 43 42 48 17 57 22 4 4 2 13 -2 -4 2 7
12 17 4 16 7 5 7 6 3 6 20 22 5 10 29 24 7 10 3 13 16 17 46 17 13 17 12 26 21 -3 10 34 66 33 25 38 6 3 1 44 41 19 2 7
13 10 16 14 9 3 5 2 2 16 27 10 3 15 14 -6 12 8 11 -5 12 33 26 8 11 11 36 19 59 56 15 32 67 24 37 40 7 3 -6 -3 -28 89 -1 12
13 19 12 12 3 6 5 4 7 28 13 -3 11 6 10 8 -3 5 8 4 26 21 4 12 -2 12 24 8 -9 33 20 7 25 57 77 31 6 1 -42 56 -8 11 -7 28
10 11 10 7 7 5 4 3 7 26 7 -2 8 1 8 -4 2 9 5 8 20 17 29 21 6 18 19 -10 21 70 13 17 31 39 61 20 13 0 -32 3 56 -9 -2 -23
15 11 9 8 6 7 4 -1 20 17 7 3 12 7 8 14 14 10 9 -0 14 30 22 -6 8 -3 15 8 23 25 -5 5 22 33 45 10 10 8 -73 -1 -35 65 -25 7
36 9 10 8 6 9 6 2 18 20 7 7 -2 25 12 16 16 11 6 0 7 9 32 6 6 5 9 4 12 29 27 42 -12 70 17 -16 27 18 0 10 3 -9 -1 -30
6 4 7 -1 -8 4 8 1 16 24 7 3 12 8 7 15 15 1 -1 5 14 5 23 21 9 2 16 15 -15 26 51 9 36 -16 56 2 -24 -60 2 13 15 5 23 -41
10 2 9 7 6 5 3 4 12 19 3 7 12 12 7 15 10 6 2 29 11 12 4 15 34 33 8 20 -6 -9 10 13 16 29 28 -53 44 51 50 15 91 30 26 10
6 3 8 9 4 6 5 11 7 30 6 8 12 11 7 9 9 6 6 20 7 6 21 0 11 18 25 -4 30 28 2 9 4 16 21 -23 -17 -2 6 -1 12 58 -26 -39
3 6 6 7 4 5 4 13 8 11 14 7 10 10 6 7 7 7 -2 0 5 2 5 25 7 12 13 42 27 1 -4 11 17 17 13 23 25 6 10 9 18 11 29 21
6 6 5 5 5 3 6 9 8 6 15 8 10 8 10 4 1 21 20 3 7 4 2 4 2 3 -1 4 13 23 22 20 12 10 15 16 8 9 7 4 2 10 8 12
4 5 5 6 4 4 3 4 8 12 11 11 11 7 5 6 9 6 3 9 8 10 9 10 5 1 6 4 4 3 6 16 28 21 21 17 24 17 16 11 10 7 12 16
5 6 5 6 4 4 5 9 10 9 12 9 9 4 8 7 8 6 7 6 9 7 6 7 5 5 7 5 5 5 6 6 5 6 7 5 4 4 6 6 7 8 6 5
7 6 4 4 3 1 6 10 12 15 10 9 15 1 9 9 15 7 9 8 7 6 6 7 8 9 9 9 10 10 8 6 7 7 5 5 5 5 4 4 4 6 7 7
7 5 5 5 6 4 15 11 16 14 13 19 8 16 3 15 20 10 7 7 6 7 7 6 7 7 9 9 9 9 9 9 10 10 11 10 9 9 10 11 11 12 12 12
3 4 8 6 8 9 11 13 17 20 19 13 18 5 12 8 12 9 6 7 7 7 7 8 8 8 7 7 7 5 4 2 3 4 4 4 5 4 1 0 2 -0 0 2
9 6 9 8 16 11 16 20 26 30 15 17 12 14 14 10 15 12 8 7 8 9 9 10 12 9 5 6 7 6 0 -1 1 1 0 -1 2 1 -0 2 3 4 2 0
9 8 8 9 14 21 25 25 22 22 22 10 16 20 13 12 19 16 7 7 9 11 12 10 6 6 6 5 3 2 1 2 1 -0 3 3 3 4 5 5 8 8 11 8
9 6 8 11 17 27 10 20 15 18 37 21 17 9 15 19 23 12 7 9 11 12 9 5 5 5 3 4 4 4 4 3 3 7 12 14 15 15 15 16 18 18 16 16
Height
5744 5743 5739 5736 5734 5732 5728 5725 5721 5719 5716 5712 5708 5707 5701 5687 5681 5680 5675 5670 5665 5660 5656 5651 5645 5640 5637 5634 5639 5645 5651 5662 5668 5679 5687 5696 5706 5713 5720 5727 5735 5741 5747 5754
5736 5734 5731 5729 5726 5723 5720 5717 5714 5711 5708 5704 5696 5696 5687 5680 5664 5664 5665 5663 5657 5651 5645 5637 5631 5624 5621 5621 5623 5626 5626 5633 5646 5656 5664 5677 5688 5698 5707 5716 5723 5729 5738 5745
5726 5724 5723 5721 5717 5714 5712 5709 5705 5703 5698 5694 5682 5686 5678 5664 5658 5656 5656 5652 5646 5639 5632 5623 5617 5613 5610 5606 5605 5609 5608 5610 5617 5629 5642 5659 5671 5682 5691 5699 5708 5717 5728 5733
5715 5715 5712 5711 5709 5705 5703 5700 5698 5694 5689 5686 5674 5668 5670 5659 5648 5651 5648 5643 5635 5628 5619 5611 5604 5598 5594 5591 5587 5588 5591 5590 5593 5603 5615 5639 5657 5667 5679 5689 5698 5705 5717 5723
5705 5705 5703 5701 5700 5697 5697 5694 5690 5686 5680 5673 5672 5663 5658 5650 5645 5646 5642 5634 5626 5616 5607 5596 5587 5582 5578 5577 5572 5568 5565 5563 5568 5575 5594 5614 5634 5653 5671 5678 5684 5690 5705 5714
5695 5693 5694 5692 5691 5690 5689 5686 5682 5677 5669 5663 5662 5654 5647 5642 5640 5639 5633 5626 5617 5605 5594 5582 5574 5569 5565 5561 5557 5551 5545 5543 5542 5556 5571 5589 5614 5639 5656 5670 5672 5678 5688 5703
5685 5684 5683 5684 5683 5682 5680 5677 5673 5670 5661 5658 5655 5649 5642 5639 5636 5630 5623 5616 5605 5593 5581 5572 5567 5561 5555 5551 5544 5535 5528 5522 5519 5535 5550 5573 5605 5623 5639 5653 5661 5666 5674 5689
5675 5675 5674 5677 5676 5674 5672 5669 5665 5658 5654 5652 5653 5642 5637 5634 5631 5625 5619 5609 5596 5585 5573 5567 5562 5556 5551 5541 5532 5525 5514 5507 5504 5517 5533 5561 5585 5605 5623 5622 5631 5638 5655 5673
5665 5667 5665 5666 5667 5667 5663 5662 5657 5651 5647 5644 5644 5635 5632 5630 5626 5621 5614 5604 5592 5580 5572 5566 5559 5551 5546 5534 5520 5513 5507 5502 5503 5511 5527 5550 5573 5593 5607 5618 5625 5592 5640 5659
5654 5658 5659 5658 5660 5659 5656 5654 5650 5644 5641 5639 5637 5630 5628 5625 5623 5617 5610 5602 5591 5579 5570 5564 5559 5551 5544 5532 5521 5514 5510 5506 5505 5511 5525 5546 5570 5588 5603 5618 5622 5617 5629 5647
5646 5651 5653 5653 5652 5650 5650 5646 5641 5638 5638 5634 5629 5625 5622 5620 5618 5613 5607 5599 5588 5578 5569 5564 5559 5553 5545 5539 5531 5524 5518 5518 5517 5521 5533 5551 5568 5581 5596 5612 5621 5610 5626 5636
5637 5643 5645 5646 5644 5644 5642 5640 5636 5632 5633 5631 5626 5620 5619 5617 5613 5609 5604 5597 5587 5577 5570 5565 5562 5557 5550 5545 5540 5542 5534 5534 5534 5533 5546 5560 5574 5583 5589 5605 5614 5614 5624 5631
5633 5636 5637 5637 5637 5638 5636 5634 5629 5626 5627 5627 5621 5617 5614 5611 5608 5606 5602 5596 5587 5577 5570 5565 5562 5560 5556 5552 5550 5546 5542 5538 5540 5545 5555 5567 5581 5587 5597 5602 5602 5613 5621 5626
5624 5629 5632 5632 5631 5631 5629 5628 5623 5621 5621 5618 5615 5612 5610 5608 5606 5603 5600 5596 5589 5580 5572 5566 5563 5561 5559 5557 5553 5549 5551 5545 5554 5558 5563 5576 5581 5583 5596 5599 5605 5611 5619 5620
5615 5622 5625 5623 5624 5624 5624 5623 5618 5615 5615 5613 5611 5608 5606 5605 5604 5602 5599 5595 5590 5583 5577 5570 5565 5562 5560 5558 5557 5558 5556 5560 5561 5565 5569 5572 5581 5585 5590 5600 5601 5603 5605 5611
5609 5615 5617 5616 5617 5617 5618 5617 5613 5610 5610 5608 5606 5605 5603 5602 5601 5600 5597 5594 5589 5585 5580 5576 5570 5564 5561 5562 5560 5559 5560 5562 5564 5565 5566 5570 5576 5579 5581 5586 5591 5594 5595 5600
5602 5608 5610 5610 5610 5611 5611 5611 5607 5605 5603 5604 5602 5601 5599 5598 5598 5597 5595 5592 5589 5585 5580 5577 5573 5568 5565 5564 5563 5561 5561 5564 5564 5568 5572 5576 5577 5576 5579 5580 5586 5587 5588 5596
5598 5601 5602 5604 5604 5604 5604 5603 5601 5600 5597 5598 5597 5596 5596 5594 5595 5593 5592 5590 5587 5584 5582 5579 5575 5573 5569 5566 5563 5563 5564 5564 5567 5572 5573 5575 5575 5577 5577 5578 5581 5583 5587 5589
5592 5594 5596 5597 5598 5598 5596 5595 5594 5593 5592 5591 5591 5591 5591 5591 5590 5589 5588 5587 5585 5583 5581 5579 5577 5575 5574 5572 5571 5569 5569 5570 5569 5568 5569 5569 5570 5573 5574 5576 5578 5578 5581 5583
5586 5589 5590 5592 5591 5590 5588 5587 5585 5583 5582 5586 5585 5585 5585 5585 5585 5585 5584 5583 5582 5581 5579 5579 5578 5575 5574 5572 5572 5572 5573 5573 5574 5574 5574 5573 5574 5575 5576 5577 5578 5579 5578 5577
5581 5582 5584 5584 5582 5580 5579 5578 5576 5575 5578 5576 5577 5578 5578 5579 5579 5579 5579 5579 5579 5577 5577 5576 5576 5575 5575 5574 5573 5572 5572 5571 5572 5572 5572 5573 5574 5573 5572 5571 5570 5570 5569 5569
5576 5576 5576 5576 5574 5572 5571 5568 5567 5566 5564 5565 5568 5570 5571 5571 5571 5572 5574 5575 5575 5574 5573 5573 5573 5573 5572 5572 5572 5571 5571 5570 5569 5569 5568 5567 5565 5564 5564 5565 5565 5563 5561 5558
5569 5570 5570 5569 5566 5563 5560 5557 5555 5554 5555 5558 5560 5562 5563 5564 5565 5566 5568 5569 5570 5570 5570 5570 5570 5570 5570 5569 5569 5569 5569 5569 5568 5568 5567 5566 5565 5565 5563 5561 5559 5557 5555 5553
5564 5563 5562 5561 5559 5554 5550 5547 5545 5545 5546 5549 5552 5553 5555 5557 5559 5560 5561 5563 5565 5566 5566 5566 5566 5567 5567 5567 5567 5566 5565 5564 5563 5562 5560 5559 5558 5556 5554 5551 5549 5545 5542 5539
5558 5556 5555 5552 5549 5545 5542 5539 5538 5538 5539 5542 5544 5547 5549 5551 5552 5553 5555 5557 5559 5560 5561 5561 5561 5561 5561 5561 5560 5559 5558 5557 5556 5554 5552 5550 5547 5544 5541 5539 5535 5533 5530 5527
5550 5548 5547 5545 5541 5538 5536 5535 5535 5534 5535 5537 5540 5542 5543 5545 5546 5547 5549 5552 5554 5555 5555 5556 5556 5556 5555 5554 5553 5551 5550 5548 5546 5544 5541 5538 5534 5531 5528 5524 5521 5519 5515 5511